GSAT-8 (GAGAN/PRN 127)

Last updated on Tue Oct 28 2025 00:03:32 GMT+0000 (Coordinated Universal Time)

1 37605U 11022A 25300.41269926 .00000096 00000+0 00000+0 0 9999 2 37605 1.5246 84.7208 0007607 163.2422 351.7417 1.00272277 50887
UTC large
Height (km)
Speed (km/s)
/
Latitude / Longitude
Inclination (degrees)
Orbital Period (minutes)
Azimuth
Elevation
Range (km)
Doppler Factor

Next 0 passes for location: London (51.5072 / 0.1276)

Sorry there are no passes over London.